Weather History for Paganella, Italy

Change the Weather History Date:

Saturday, April 12, 2014

  Actual Average Record
Temperature  
Mean Temperature 38 °F -  
Max Temperature 40 °F 39 °F 46 °F (2007)
Min Temperature 35 °F 29 °F 17 °F (2006)
Degree Days  
Heating Degree Days 28    
Moisture  
Dew Point 31 °F    
Average Humidity 74    
Maximum Humidity 93    
Minimum Humidity 37    
Precipitation  
Precipitation 0.02 in 0.07 in - ()
Sea Level Pressure  
Sea Level Pressure 30.00 in    
Wind  
Wind Speed 2 mph ()    
Max Wind Speed 6 mph    
Max Gust Speed -    
Visibility 7.5 miles    
Events Rain    
Averages and records for this station are not official NWS values.
T = Trace of Precipitation, MM = Missing Value Source: Averaged Metar Reports

Daily Weather History Graph

Daily Weather History Graph

Search for Another Location

Airport:

Trip Planner

Search our weather history database for the weather conditions in past years. The results will help you decide how hot, cold, wet, or windy it might be!

Date:

Astronomy

Apr. 12, 2014 Rise Set
Actual Time 6:35 AM CEST 7:58 PM CEST
Civil Twilight 6:04 AM CEST 8:29 PM CEST
Nautical Twilight 5:26 AM CEST 9:07 PM CEST
Astronomical Twilight 4:46 AM CEST 9:48 PM CEST
Moon 5:12 PM CEST (4/12) 5:02 AM CEST (4/12)
Length of Visible Light 14h 25m
Length of Day
13h 23m
Waxing Gibbous, 91% of the Moon is Illuminated
Apr 12
Waxing Gibbous
Apr 15
Full
Apr 22
Last Quarter
Apr 29
New
May 7
First Quarter

Hourly Weather History & Observations

Time (CEST) Temp. Windchill Dew Point Humidity Pressure Visibility Wind Dir Wind Speed Gust Speed Precip Events Conditions
12:00 AM 37 °F - 35 °F 88%  in 7 mi SSW 4.6 mph - -   Partly Cloudy
12:55 AM 37.4 °F 33.8 °F 35.6 °F 93% 30.01 in 6.2 mi SSW 4.6 mph - N/A   Partly Cloudy
1:00 AM 37 °F - 36 °F 92%  in 6 mi SSW 4.6 mph - -   Scattered Clouds
1:55 AM 37.4 °F 33.8 °F 33.8 °F 87% 30.01 in 6.2 mi SSW 4.6 mph - N/A   Partly Cloudy
2:00 AM 37 °F - 33 °F 79%  in 9 mi SSW 4.6 mph - -   Scattered Clouds
2:55 AM 37.4 °F 33.8 °F 26.6 °F 65% 30.01 in 6.2 mi SSW 4.6 mph - N/A   Partly Cloudy
3:00 AM 38 °F - 27 °F 54%  in 9 mi SSW 4.6 mph - -   Scattered Clouds
3:55 AM 37.4 °F 33.8 °F 26.6 °F 65% 30.01 in 6.2 mi SSW 4.6 mph - N/A   Partly Cloudy
4:00 AM 38 °F - 26 °F 51%  in 9 mi SSW 4.6 mph - -   Scattered Clouds
4:55 AM 37.4 °F - 24.8 °F 60% 29.98 in - Calm Calm - N/A   Clear
5:00 AM 37 °F - 25 °F 49%  in 9 mi Calm Calm - -   Scattered Clouds
5:55 AM 35.6 °F - 28.4 °F 75% 29.98 in - Calm Calm - N/A   Clear
6:00 AM 36 °F - 29 °F 67%  in 9 mi Calm Calm - -   Partly Cloudy
6:55 AM 37.4 °F - 24.8 °F 60% 29.98 in - Calm Calm - N/A   Clear
7:00 AM 37 °F - 24 °F 47%  in 19 mi Calm Calm - -   Partly Cloudy
7:55 AM 37.4 °F - 21.2 °F 52% 29.98 in - Calm Calm - N/A   Clear
8:00 AM 38 °F - 21 °F 37%  in 19 mi Calm Calm - -   Partly Cloudy
8:55 AM 35.6 °F - 30.2 °F 81% 29.98 in 6.2 mi Calm Calm - N/A   Partly Cloudy
9:00 AM 36 °F - 31 °F 73%  in 19 mi Calm Calm - -   Scattered Clouds
9:55 AM 39.2 °F 37.0 °F 24.8 °F 56% 29.98 in - North 3.5 mph - N/A   Clear
10:00 AM 39 °F - 24 °F 43%  in 19 mi North 3.5 mph - -   Partly Cloudy
10:55 AM 37.4 °F 32.8 °F 33.8 °F 87% 30.01 in 0.7 mi North 5.8 mph - N/A   Mist
11:00 AM 37 °F - 34 °F 85%  in 1 mi North 5.8 mph - -   Mist
11:55 AM 37.4 °F 34.9 °F 32.0 °F 81% 30.01 in 3.7 mi North 3.5 mph - N/A   Partly Cloudy
12:00 PM 37 °F - 32 °F 75%  in 4 mi North 3.5 mph - -   Mist
12:55 PM 39.2 °F - 32.0 °F 75% 30.01 in 6.2 mi Calm Calm - N/A   Partly Cloudy
1:00 PM 39 °F - 32 °F 66%  in 12 mi Calm Calm - -   Partly Cloudy
1:55 PM 37.4 °F - 33.8 °F 87% 30.01 in 6.2 mi Calm Calm - N/A   Partly Cloudy
2:00 PM 38 °F - 35 °F 82%  in 6 mi Calm Calm - -   Partly Cloudy
2:55 PM 39.2 °F - 35.6 °F 87% 30.01 in 0.9 mi Calm Calm - N/A   Scattered Clouds
3:00 PM 39 °F - 35 °F 79%  in 1 mi Calm Calm - -   Mist
3:55 PM 39.2 °F - 37.4 °F 93% 30.01 in 0.9 mi Calm Calm - N/A   Mist
4:00 PM 39 °F - 38 °F 92%  in 1 mi Calm Calm - -   Mist
4:55 PM 39.2 °F 37.0 °F 33.8 °F 81% 29.98 in 6.2 mi SW 3.5 mph - N/A   Scattered Clouds
5:00 PM 40 °F - 35 °F 74%  in 6 mi SW 3.5 mph - -   Overcast
5:55 PM 39.2 °F 35.9 °F 33.8 °F 81% 29.98 in 1.2 mi SSW 4.6 mph - N/A Rain Scattered Clouds
6:00 PM 39 °F - 34 °F 74%  in 1 mi SSW 4.6 mph - - Rain Light Rain Showers
6:55 PM 39.2 °F 35.0 °F 33.8 °F 81% 29.98 in 6.2 mi SW 5.8 mph - N/A   Scattered Clouds
7:00 PM 39 °F - 33 °F 73%  in 9 mi SW 5.8 mph - - Rain Light Rain Showers
7:55 PM 37.4 °F - 30.2 °F 75% 29.98 in 6.2 mi Calm Calm - N/A   Partly Cloudy
8:00 PM 38 °F - 31 °F 67%  in 12 mi Calm Calm - -   Partly Cloudy
8:55 PM 37.4 °F - 32.0 °F 81% 30.01 in 6.2 mi Calm Calm - N/A   Partly Cloudy
9:00 PM 37 °F - 32 °F 75%  in 12 mi Calm Calm - -   Scattered Clouds
9:55 PM 35.6 °F - 32.0 °F 87% 30.01 in - Calm Calm - N/A   Clear
10:00 PM 36 °F - 31 °F 77%  in 12 mi Calm Calm - -   Partly Cloudy
10:55 PM 35.6 °F 32.8 °F 32.0 °F 87% 30.01 in - North 3.5 mph - N/A   Clear
11:00 PM 36 °F - 33 °F 83%  in 12 mi North 3.5 mph - -   Mostly Cloudy
11:55 PM 35.6 °F 32.8 °F 33.8 °F 93% 30.01 in - North 3.5 mph - N/A   Clear